Location: Launois
(49.6535°N, 4.5395°E)
Time: 03:20:10
(UTC+00:00)

Daily predictions for brighter satellites

Satellite Brightness Start Highest point End
(mag) Time Altitude Azimuth Time Altitude Azimuth Time Altitude Azimuth
Cosmos 2228 Rocket 3.3 00:05:20 41° SSE 00:06:39 60° E 00:11:06 10° NNE
Meteor 1-12 Rocket 4.3 00:03:01 10° NNW 00:08:56 87° WSW 00:11:47 33° S
Cosmos 2082 Rocket 2.7 00:07:01 32° SSE 00:09:09 46° ESE 00:14:37 10° NE
Helios 1A Rocket 3.8 00:07:43 26° ESE 00:09:24 40° ENE 00:13:03 10° N
Cosmos 1833 Rocket 3.0 00:08:10 26° SW 00:11:21 61° WNW 00:16:56 10° NNE
BREEZE-M DEB (TANK) 3.2 00:13:11 46° S 00:13:11 46° S 00:19:24 10° ESE
Cosmos 724 4.2 00:12:02 33° SSW 00:14:50 80° SE 00:20:42 10° NE
Cosmos 1908 4.3 00:12:50 10° NNW 00:15:55 28° W 00:16:07 28° W
CZ-2D R/B 4.4 00:14:32 10° NE 00:17:24 14° E 00:20:14 10° ESE
Cosmos 2360 Rocket 4.5 00:15:45 10° NNW 00:20:14 23° NE 00:24:43 10° E
USA 267 3.2 00:18:17 10° ENE 00:24:51 89° SE 00:30:21 16° WSW
Cosmos 1140 Rocket 4.1 00:22:28 26° SW 00:25:11 51° WNW 00:30:19 10° NNE
Cosmos 1441 Rocket 4.0 00:23:39 10° NNW 00:26:53 32° W 00:27:04 32° W
Cosmos 1707 4.3 00:26:20 20° W 00:27:22 22° WNW 00:30:19 10° NNW
Cosmos 1455 3.7 00:26:34 10° NNE 00:29:33 26° ENE 00:31:18 18° ESE
Cosmos 1733 Rocket 3.0 00:26:14 10° NNW 00:30:35 75° W 00:31:54 43° S
Cosmos 841 Rocket 4.3 00:26:22 10° NNW 00:31:26 48° ENE 00:36:21 11° SE
Resurs 1-4 Rocket 4.1 00:28:40 10° NE 00:32:20 19° E 00:35:58 10° SE
Cosmos 1400 Rocket 2.8 00:32:16 47° SSW 00:33:18 74° WNW 00:37:19 10° N
Nimbus 7 Rocket 4.5 00:27:35 10° NNE 00:33:37 75° ESE 00:36:43 31° S
GP-B 3.8 00:29:28 10° NNW 00:33:38 41° W 00:35:02 32° SW
H-2A R/B 3.2 00:32:59 10° N 00:37:03 36° WNW 00:38:59 24° WSW
Cosmos 381 Rocket 4.5 00:31:46 10° NNW 00:38:12 74° WSW 00:41:54 27° S
Cosmos 2278 4.2 00:35:01 10° NNW 00:40:42 60° ENE 00:46:21 10° SE
NOSS 3-4 (A) 4.0 00:35:41 10° NW 00:42:20 52° WSW 00:47:10 23° S
NOSS 3-4 (C) 4.0 00:35:47 10° NW 00:42:27 53° WSW 00:47:19 23° S
Cosmos 1346 Rocket 2.6 00:40:18 10° NNW 00:44:11 81° W 00:45:17 45° S
Cosmos 676 Rocket 4.2 00:42:47 32° S 00:45:10 62° ESE 00:50:27 10° NNE
Cosmos 468 Rocket 4.0 00:41:53 10° NNW 00:47:10 71° WSW 00:49:48 30° S
Cosmos 2251 Rocket 4.0 00:44:26 26° SW 00:47:11 54° WNW 00:52:22 10° NNE
Cosmos 407 Rocket 4.1 00:44:27 25° SW 00:47:19 50° WNW 00:52:27 10° NNE
Cosmos 1954 Rocket 4.0 00:48:42 33° SSW 00:51:12 82° ESE 00:56:32 10° NNE
Okean 2 3.7 00:49:49 33° SSE 00:51:16 54° E 00:55:10 10° NNE
Cosmos 2333 Rocket 4.0 00:48:10 10° NNW 00:53:17 32° NE 00:58:23 10° ESE
CZ-2C R/B 3.9 00:48:48 10° SE 00:53:30 37° ENE 00:58:13 10° N
Meteor 1-4 Rocket 3.2 00:53:08 31° ESE 00:53:39 33° E 00:56:22 10° NNE
Cosmos 1190 Rocket 4.1 00:51:10 31° SW 00:53:45 74° WNW 00:59:05 10° NNE
Cosmos 1763 Rocket 4.1 00:51:29 10° NW 00:56:27 41° WSW 00:58:19 30° SSW
Cosmos 2322 Rocket 3.3 00:52:56 10° NNW 00:58:21 44° NE 01:03:44 10° SE
Cosmos 1300 3.6 00:55:51 10° NNW 00:58:59 30° W 00:59:22 29° WSW
Cosmos 1703 Rocket 4.1 00:58:54 26° SSE 01:01:06 52° E 01:05:27 10° NNE
USA 234 3.5 00:56:30 14° SSE 01:01:59 47° SW 01:08:16 10° WNW
SL-14 R/B 4.1 01:01:39 29° WSW 01:02:52 37° WNW 01:06:28 10° N
Cosmos 1953 2.2 00:59:42 10° N 01:03:39 84° E 01:05:20 33° SSE
SL-8 R/B 3.9 00:59:52 10° W 01:04:25 46° SSW 01:08:59 10° SE
Cosmos 1697 Rocket 4.3 01:01:01 10° WNW 01:04:37 18° W 01:05:44 17° WSW
Cosmos 1862 Rocket 4.0 01:04:13 31° SW 01:05:53 49° WNW 01:10:07 10° N
NPP 4.5 01:01:48 10° NNE 01:06:57 43° E 01:10:33 19° SSE
Aureole 3 3.4 01:09:14 34° W 01:09:38 36° WNW 01:12:28 10° N
Cosmos 1980 Rocket 3.1 01:07:09 10° NW 01:12:06 31° WSW 01:14:01 25° SW
Nadezhda 1 Rocket 4.0 01:07:00 10° N 01:13:27 90° E 01:18:17 19° S
Cosmos 1242 Rocket 4.0 01:13:25 17° SE 01:14:35 21° E 01:16:52 10° NE
Cosmos 540 Rocket 4.1 01:10:06 10° NW 01:14:52 39° WSW 01:16:52 28° SSW
Cosmos 1300 Rocket 4.3 01:12:31 10° N 01:16:45 49° ENE 01:20:25 13° SSE
ADEOS II 3.6 01:15:07 10° NE 01:19:40 29° E 01:24:11 10° SSE
MOZ.5/SAFIR/RUBIN 5/SL-8 3.8 01:18:21 25° S 01:21:04 70° WSW 01:25:47 10° NNW
Cosmos 1408 4.2 01:21:25 14° SE 01:23:04 21° E 01:25:27 10° NE
COSMOS 2406 3.4 01:19:32 24° SW 01:23:07 67° WNW 01:28:53 10° NNE
Cosmos 1356 Rocket 4.2 01:22:17 26° WSW 01:23:59 37° WNW 01:27:51 10° N
Lacrosse 5 rocket 1.1 01:20:30 10° WNW 01:24:38 74° SW 01:28:33 10° SE
IDEFIX/ARIANE 42P 2.9 01:19:39 10° NNE 01:24:53 61° ESE 01:28:29 20° S
EXPRESS MD2 4.1 01:27:55 22° SSE 01:28:11 23° SE 01:31:13 10° E
Okean 1-7 3.4 01:30:04 27° SW 01:32:06 52° WNW 01:36:21 10° N
ATLAS 2AS CENTAUR R/B 3.7 01:32:57 10° NW 01:39:42 50° NE 01:46:10 10° ESE
Cosmos 1315 Rocket 2.8 01:39:37 28° SSW 01:41:32 64° WNW 01:45:27 10° N
SL-16 R/B 2.2 01:37:15 10° NNW 01:42:53 67° WSW 01:48:29 10° SSE
SJ 16-02 2.6 01:39:50 14° SSE 01:42:59 34° ESE 01:46:54 10° NE
CZ-2C R/B 3.9 01:37:38 10° NNE 01:43:21 53° E 01:48:25 13° S
Helios 1A Rocket 4.3 01:43:06 19° WSW 01:43:55 20° W 01:46:50 10° NW
Cosmos 1850 Rocket 4.0 01:46:14 21° SSW 01:49:53 84° ESE 01:55:11 10° NNE
Cosmos 2082 Rocket 3.2 01:48:50 14° WSW 01:53:22 37° NW 01:58:41 10° NNE
Cosmos 1709 Rocket 4.0 01:49:42 17° S 01:54:46 86° W 02:01:11 10° N
Cosmos 1741 Rocket 4.0 01:51:18 20° SSW 01:55:00 87° ESE 02:00:18 10° NNE
Cosmos 2219 Rocket 3.2 01:50:33 10° NNW 01:56:02 48° NE 02:01:30 10° SE
Cosmos 1782 Rocket 3.7 01:52:20 10° NNW 01:56:37 55° W 01:59:39 18° SSW
SL-16 R/B 2.9 01:50:37 10° SSE 01:56:49 70° ENE 02:03:05 10° NNW
Cosmos 2181 Rocket 4.4 01:50:46 10° N 01:57:09 69° ENE 02:03:23 10° SSE
CZ-2D R/B 2.2 01:52:42 10° NNE 01:58:14 84° ESE 02:02:42 16° SSW
Cosmos 1703 3.8 02:00:01 13° S 02:03:10 52° E 02:06:49 10° NNE
Meteor 1-28 Rocket 3.4 02:00:19 10° SSE 02:03:50 67° ENE 02:07:24 10° N
Cosmos 1455 3.4 02:01:12 10° NW 02:03:55 22° W 02:05:04 19° WSW
AQUA 4.4 01:59:46 10° NNE 02:04:25 54° E 02:08:57 10° S
Cosmos 2360 Rocket 2.2 01:59:17 10° NNW 02:04:59 87° WSW 02:10:41 10° SSE
Cosmos 968 Rocket 3.5 02:02:10 17° SSW 02:06:07 79° ESE 02:11:17 10° NNE
CRYOSAT 2 4.4 02:01:27 10° N 02:06:23 90° W 02:10:48 13° S
USA 267 4.0 02:01:21 10° ENE 02:07:38 52° NNW 02:13:54 10° W
Genesis I 3.5 02:05:37 19° S 02:07:49 47° SE 02:11:16 10° NE
Meteor 1-24 Rocket 4.3 02:03:06 10° S 02:09:00 61° E 02:14:55 10° NNE
RESURS DK-1 2.6 02:05:05 10° NNW 02:09:09 72° ENE 02:13:12 10° SE
DELTA 2 R/B (1) 4.5 02:06:59 15° WSW 02:10:27 27° S 02:15:04 10° SE
MSX 3.9 02:05:27 10° NNE 02:11:11 71° WNW 02:16:00 15° SSW
Resurs 1-4 Rocket 2.1 02:07:25 10° NNE 02:12:40 72° WNW 02:17:04 15° SSW
Cosmos 841 Rocket 4.5 02:08:36 10° NW 02:13:02 29° W 02:16:19 15° SSW
H-2A R/B 4.0 02:13:13 10° N 02:17:00 41° WNW 02:19:49 16° SW
FENGYUN 3A 3.7 02:16:43 10° NNE 02:22:08 85° ESE 02:27:27 10° SSW
Meteor 1-4 Rocket 4.4 02:25:17 10° W 02:26:48 13° WNW 02:28:21 10° NW
Geosat 4.4 02:27:02 10° SE 02:32:00 70° ENE 02:37:01 10° NNW
SL-24 R/B 4.4 02:28:41 10° S 02:33:32 62° W 02:38:19 10° N
CZ-2C R/B 3.2 02:29:15 11° SSW 02:33:46 36° W 02:38:33 10° NNW
Cosmos 2221 Rocket 4.4 02:29:48 10° S 02:34:12 52° E 02:38:37 10° NNE
Cosmos 2242 Rocket 4.1 02:30:52 13° SSW 02:34:35 47° WNW 02:38:56 10° N
SAR-Lupe-1 4.3 02:33:51 10° NNE 02:37:25 68° ESE 02:40:58 10° S
Cosmos 2333 Rocket 2.3 02:32:17 10° NW 02:37:53 57° WSW 02:43:28 10° S
Cosmos 1825 3.4 02:34:48 10° SSE 02:37:56 35° E 02:41:06 10° NNE
Sich 1 Rocket 3.7 02:33:25 10° N 02:37:59 81° E 02:42:27 10° SSE
Cosmos 2098 Rocket 3.8 02:33:19 10° NNW 02:38:20 60° W 02:44:15 10° S
Cosmos 2151 Rocket 3.6 02:35:59 10° N 02:40:30 88° W 02:44:57 10° S
Cosmos 1814 Rocket 4.4 02:36:41 10° NW 02:41:36 44° WSW 02:46:33 10° S
Cosmos 2322 Rocket 2.7 02:37:09 10° NW 02:42:19 38° WSW 02:47:30 10° S
SL-27 R/B 2.1 02:40:26 14° SW 02:42:44 56° WNW 02:45:31 10° NNE
Cosmos 1892 3.3 02:40:37 10° S 02:44:01 49° E 02:47:26 10° NNE
Cosmos 1242 Rocket 3.8 02:44:54 11° WSW 02:46:52 18° WNW 02:49:00 10° NNW
Meteor 2-5 Rocket 3.9 02:43:29 10° SSW 02:49:22 71° WNW 02:55:21 10° N
SL-4 R/B 3.5 02:47:40 10° SSW 02:51:25 29° SE 02:55:16 10° E
Okean 2 Rocket 3.0 02:48:59 10° NNW 02:53:23 72° W 02:57:45 10° S
Cosmos 1408 3.8 02:53:38 10° WSW 02:55:55 19° WNW 02:58:11 10° NNW
Cosmos 2074 Rocket 4.0 02:50:22 10° S 02:56:37 83° W 03:02:52 10° N
Cosmos 1674 Rocket 3.6 02:53:39 10° S 02:58:05 86° W 03:02:33 10° N
ADEOS II 2.6 02:54:27 10° N 02:59:28 46° WNW 03:04:27 10° SW
Cosmos 1570 Rocket 4.0 02:54:15 10° NNW 02:59:32 70° WSW 03:04:49 10° SSE
Lacrosse 5 rocket 3.0 03:00:16 10° W 03:02:17 14° WSW 03:04:15 10° SSW
Cosmos 2208 Rocket 4.0 02:57:23 10° NNW 03:02:43 84° WSW 03:07:56 10° SSE
IDEFIX/ARIANE 42P 4.0 02:59:52 10° N 03:04:01 24° WNW 03:08:10 10° WSW
Cosmos 1833 4.3 02:58:48 10° SW 03:04:28 71° WNW 03:10:08 10° NNE
ALOS 2.4 03:00:20 10° N 03:04:54 61° WNW 03:09:27 10° SSW
METEOR-M 4.4 03:03:19 10° NNE 03:08:41 72° ESE 03:14:00 10° S
